Location: Gugi
(45.4667°N, 11.1000°E)
Time: 21:58:21
(UTC+00:00)

ATLAS 3B R/B - Pass Details

Date: 17 November 2019
Orbit: 1030 x 1165 km, 63.8° (Epoch: 03 December)

Event Time Altitude Azimuth Distance (km) Brightness Sun altitude
Rises 17:31:43 0° 313° (NW) 3,789 6.2 -18.8°
Reaches altitude 10° 17:35:25 10° 333° (NNW) 2,837 5.2 -19.4°
Maximum altitude 17:39:41 17° 13° (NNE) 2,342 4.3 -20.2°
Enters shadow 17:41:17 16° 30° (NNE) 2,423 4.2 -20.5°
